Вернуться в каталог

EUTELSAT QUANTUM

АктивенСвязьGEO
NORAD 49056·PAYLOAD·🇪🇺 EU

Запущен Jul 30, 2021 с Guiana Space Centre

Loading…

TLE

СвежийSource: Space-Track

Эпоха: Sep 14, 2026, 14:01 UTC

1 49056U 21069B   26257.58454772  .00000118  00000-0  00000-0 0  9996
2 49056   0.0249  70.5462 0002274 101.1595  79.9992  1.00273271 18829

Отслеживайте EUTELSAT QUANTUM в реальном времени с AllMySat

Download on the App Store